| time (UTC) | temp C | wind direction | speed KPH | gust KPH | rain 1hr cm | rain 24hr cm | rain mn cm | humidity % | barometer mb |
| 20260906131533 | 16 | 79 | 0.0 | 0.0 | 0.00 | 0.03 | 0.03 | 1 | 1015.0 |
| 20260906130027 | 16 | 80 | 0.0 | 1.6 | 0.00 | 0.03 | 0.03 | 1 | 1015.1 |
| 20260906124522 | 16 | 213 | 0.0 | 0.0 | 0.00 | 0.03 | 0.03 | 1 | 1014.9 |
| 20260906123018 | 16 | 213 | 0.0 | 0.0 | 0.00 | 0.03 | 0.03 | 1 | 1014.8 |
| 20260906121515 | 16 | 213 | 0.0 | 0.0 | 0.00 | 0.03 | 0.03 | 1 | 1014.8 |
| 20260906120012 | 15 | 213 | 0.0 | 0.0 | 0.00 | 0.03 | 0.03 | 1 | 1014.6 |
| 20260906114516 | 15 | 213 | 0.0 | 0.0 | 0.00 | 0.03 | 0.03 | 1 | 1014.4 |
| 20260906113005 | 15 | 213 | 0.0 | 0.0 | 0.00 | 0.03 | 0.03 | 1 | 1014.5 |
| 20260906111613 | 15 | 213 | 0.0 | 0.0 | 0.00 | 0.03 | 0.03 | 1 | 1014.5 |
| 20260906110057 | 15 | 213 | 0.0 | 0.0 | 0.00 | 0.03 | 0.03 | 1 | 1014.3 |
| 20260906104552 | 15 | 213 | 0.0 | 0.0 | 0.00 | 0.03 | 0.03 | 1 | 1014.2 |
| 20260906101546 | 14 | 213 | 0.0 | 0.0 | 0.00 | 0.03 | 0.03 | 1 | 1013.8 |
| 20260906100042 | 14 | 213 | 0.0 | 0.0 | 0.00 | 0.03 | 0.03 | 1 | 1013.6 |
| 20260906094534 | 13 | 213 | 0.0 | 0.0 | 0.00 | 0.03 | 0.03 | 1 | 1013.6 |
| 20260906091531 | 13 | 213 | 0.0 | 0.0 | 0.00 | 0.03 | 0.03 | 1 | 1013.1 |
| 20260906090028 | 13 | 213 | 0.0 | 0.0 | 0.00 | 0.03 | 0.03 | 1 | 1013.1 |
| 20260906084525 | 13 | 213 | 0.0 | 0.0 | 0.00 | 0.03 | 0.03 | 1 | 1012.9 |
| 20260906081518 | 14 | 213 | 0.0 | 0.0 | 0.03 | 0.03 | 0.03 | 1 | 1012.7 |
| 20260906080013 | 14 | 213 | 0.0 | 0.0 | 0.03 | 0.03 | 0.03 | 1 | 1012.6 |
| 20260906074506 | 14 | 213 | 0.0 | 0.0 | 0.03 | 0.03 | 0.03 | 1 | 1012.5 |
| 20260906071554 | 14 | 213 | 0.0 | 0.0 | 0.00 | 0.00 | 0.00 | 1 | 1012.7 |
| 20260906070056 | 14 | 213 | 0.0 | 0.0 | 0.00 | 0.00 | 0.00 | 1 | 1012.6 |
| 20260906064549 | 14 | 213 | 0.0 | 0.0 | 0.00 | 0.00 | 0.00 | 1 | 1012.6 |
| 20260906061538 | 15 | 213 | 0.0 | 0.0 | 0.00 | 0.00 | 0.00 | 1 | 1012.8 |
| 20260906060034 | 15 | 213 | 0.0 | 0.0 | 0.00 | 0.00 | 0.00 | 1 | 1012.8 |
| 20260906054542 | 15 | 213 | 0.0 | 0.0 | 0.00 | 0.00 | 0.00 | 1 | 1012.8 |
| 20260906051522 | 15 | 213 | 0.0 | 0.0 | 0.00 | 0.00 | 0.00 | 1 | 1012.8 |
| 20260906050018 | 15 | 213 | 0.0 | 0.0 | 0.00 | 0.00 | 0.00 | 1 | 1012.7 |
| 20260906044516 | 15 | 213 | 0.0 | 0.0 | 0.00 | 0.00 | 0.00 | 1 | 1012.7 |
| 20260906041507 | 16 | 213 | 0.0 | 0.0 | 0.00 | 0.00 | 0.00 | 1 | 1012.7 |
| 20260906040004 | 16 | 213 | 0.0 | 0.0 | 0.00 | 0.00 | 0.00 | 1 | 1012.7 |
| 20260906034610 | 16 | 213 | 0.0 | 0.0 | 0.00 | 0.00 | 0.00 | 1 | 1012.7 |
| 20260906031553 | 16 | 213 | 0.0 | 0.0 | 0.00 | 0.00 | 0.00 | 1 | 1012.5 |
| 20260906030049 | 16 | 213 | 0.0 | 0.0 | 0.00 | 0.00 | 0.00 | 1 | 1012.4 |
| 20260906024546 | 16 | 213 | 0.0 | 0.0 | 0.00 | 0.00 | 0.00 | 1 | 1012.4 |
| 20260906021537 | 17 | 213 | 0.0 | 0.0 | 0.00 | 0.00 | 0.00 | 1 | 1012.4 |
| 20260906020034 | 17 | 213 | 0.0 | 0.0 | 0.00 | 0.00 | 0.00 | 1 | 1012.2 |
| 20260906014529 | 17 | 213 | 0.0 | 0.0 | 0.00 | 0.00 | 0.00 | 1 | 1012.0 |
| 20260906011526 | 18 | 213 | 0.0 | 0.0 | 0.00 | 0.00 | 0.00 | 1 | 1011.9 |
| 20260906010022 | 18 | 213 | 0.0 | 0.0 | 0.00 | 0.00 | 0.00 | 1 | 1011.9 |
| 20260906004518 | 18 | 213 | 0.0 | 0.0 | 0.00 | 0.00 | 0.00 | 1 | 1011.8 |
| 20260906001518 | 19 | 33 | 0.0 | 0.0 | 0.00 | 0.00 | 0.00 | 1 | 1011.4 |
| 20260906000018 | 19 | 33 | 0.0 | 0.0 | 0.00 | 0.00 | 0.00 | 1 | 1011.4 |
| 20260905234516 | 20 | 33 | 0.0 | 0.0 | 0.00 | 0.00 | 0.00 | 1 | 1011.3 |
| 20260905231559 | 21 | 33 | 0.0 | 0.0 | 0.00 | 0.00 | 0.00 | 1 | 1011.5 |
| 20260905230100 | 22 | 33 | 0.0 | 0.0 | 0.00 | 0.00 | 0.00 | 1 | 1011.3 |
| 20260905224611 | 22 | 33 | 0.0 | 0.0 | 0.00 | 0.00 | 0.00 | 1 | 1011.2 |
| 20260905223151 | 22 | 33 | 0.0 | 0.0 | 0.00 | 0.00 | 0.00 | 1 | 1011.1 |
| 20260905221551 | 23 | 33 | 0.0 | 0.0 | 0.00 | 0.00 | 0.00 | 1 | 1010.9 |
| 20260905220051 | 23 | 34 | 0.0 | 0.0 | 0.00 | 0.00 | 0.00 | 1 | 1010.8 |
| 20260905214551 | 23 | 34 | 0.0 | 0.0 | 0.00 | 0.00 | 0.00 | 1 | 1010.6 |
| 20260905213150 | 23 | 16 | 0.0 | 0.0 | 0.00 | 0.00 | 0.00 | 1 | 1010.4 |
| 20260905211550 | 23 | 28 | 0.0 | 0.0 | 0.00 | 0.00 | 0.00 | 1 | 1010.5 |
| 20260905210053 | 23 | 284 | 0.0 | 0.0 | 0.00 | 0.00 | 0.00 | 1 | 1010.3 |
| 20260905204541 | 23 | 259 | 0.0 | 0.0 | 0.00 | 0.00 | 0.00 | 1 | 1010.2 |
| 20260905203138 | 23 | 355 | 0.0 | 0.0 | 0.00 | 0.00 | 0.00 | 10 | 1010.3 |
| 20260905201535 | 23 | 355 | 0.0 | 0.0 | 0.00 | 0.00 | 0.00 | 26 | 1010.3 |
| 20260905200033 | 23 | 9 | 0.0 | 0.0 | 0.00 | 0.00 | 0.00 | 27 | 1010.3 |
| 20260905194526 | 23 | 16 | 0.0 | 0.0 | 0.00 | 0.00 | 0.00 | 32 | 1010.3 |
| 20260905193123 | 23 | 67 | 0.0 | 0.0 | 0.00 | 0.00 | 0.00 | 32 | 1010.3 |
| 20260905191518 | 24 | 22 | 0.0 | 0.0 | 0.00 | 0.00 | 0.00 | 21 | 1010.3 |
| 20260905190012 | 24 | 15 | 0.0 | 0.0 | 0.00 | 0.00 | 0.00 | 27 | 1010.3 |
| 20260905184517 | 23 | 19 | 0.0 | 3.2 | 0.00 | 0.00 | 0.00 | 34 | 1010.3 |
| 20260905183103 | 24 | 19 | 0.0 | 0.0 | 0.00 | 0.00 | 0.00 | 32 | 1010.3 |
| 20260905181500 | 24 | 5 | 0.0 | 1.6 | 0.00 | 0.00 | 0.00 | 31 | 1010.4 |
| 20260905180104 | 23 | 64 | 0.0 | 0.0 | 0.00 | 0.00 | 0.00 | 33 | 1010.4 |
| 20260905174552 | 23 | 5 | 0.0 | 0.0 | 0.00 | 0.00 | 0.00 | 21 | 1010.4 |
| 20260905173105 | 23 | 55 | 0.0 | 0.0 | 0.00 | 0.00 | 0.00 | 24 | 1010.5 |
| 20260905171547 | 23 | 11 | 0.0 | 3.2 | 0.00 | 0.00 | 0.00 | 24 | 1010.8 |
| 20260905170045 | 23 | 92 | 0.0 | 1.6 | 0.00 | 0.00 | 0.00 | 5 | 1010.7 |
| 20260905164538 | 23 | 355 | 0.0 | 0.0 | 0.00 | 0.00 | 0.00 | 12 | 1010.8 |
| 20260905163033 | 23 | 360 | 0.0 | 0.0 | 0.00 | 0.00 | 0.00 | 1 | 1010.7 |
| 20260905161529 | 23 | 42 | 0.0 | 1.6 | 0.00 | 0.00 | 0.00 | 1 | 1010.9 |
| 20260905160023 | 22 | 37 | 0.0 | 1.6 | 0.00 | 0.00 | 0.00 | 1 | 1011.0 |
| 20260905154519 | 22 | 63 | 0.0 | 1.6 | 0.00 | 0.00 | 0.00 | 1 | 1011.0 |
| 20260905153019 | 21 | 55 | 0.0 | 1.6 | 0.00 | 0.00 | 0.00 | 1 | 1011.1 |
| 20260905151521 | 21 | 53 | 0.0 | 1.6 | 0.00 | 0.00 | 0.00 | 1 | 1011.2 |
| 20260905150013 | 21 | 20 | 0.0 | 6.4 | 0.00 | 0.00 | 0.00 | 1 | 1011.3 |
| 20260905144521 | 20 | 38 | 0.0 | 0.0 | 0.00 | 0.00 | 0.00 | 1 | 1011.1 |
| 20260905143006 | 18 | 105 | 0.0 | 0.0 | 0.00 | 0.00 | 0.00 | 1 | 1011.2 |
| 20260905141503 | 18 | 100 | 0.0 | 0.0 | 0.00 | 0.00 | 0.00 | 1 | 1011.2 |
| 20260905140059 | 18 | 53 | 0.0 | 0.0 | 0.00 | 0.00 | 0.00 | 1 | 1011.3 |
| 20260905134557 | 17 | 119 | 0.0 | 0.0 | 0.00 | 0.00 | 0.00 | 1 | 1011.2 |
| 20260905133050 | 17 | 142 | 0.0 | 0.0 | 0.00 | 0.00 | 0.00 | 1 | 1011.1 |